Weather History for Hereford, TX

Change the Weather History Date:

Friday, February 14, 2014

  Actual Average (KAMA) Record (KAMA)
Temperature  
Mean Temperature 44 °F 40 °F  
Max Temperature 56 °F 54 °F 86 °F (1979)
Min Temperature 33 °F 26 °F -2 °F (1895)
Degree Days  
Heating Degree Days 20 25  
Month to date heating degree days 366  
Since 1 July heating degree days 2951  
Cooling Degree Days 0 0  
Month to date cooling degree days 0  
Year to date cooling degree days 0  
Moisture  
Dew Point 22 °F    
Average Humidity 41    
Maximum Humidity 61    
Minimum Humidity 23    
Precipitation  
Precipitation 0.00 in 0.02 in 0.48 in (1908)
Month to date precipitation 0.30  
Year to date precipitation 1.02  
Snow  
Snow 0.00 in 0.10 in 6.00 in (1908)
Month to date snowfall 1.9  
Since 1 July snowfall 13.0  
Snow Depth -    
Sea Level Pressure  
Sea Level Pressure 30.02 in    
Wind  
Wind Speed 12 mph (North)    
Max Wind Speed 25 mph    
Max Gust Speed 36 mph    
Visibility 10 miles    
Events      
T = Trace of Precipitation, MM = Missing Value Source: NWS Daily Summary

Daily Weather History Graph

Daily Weather History Graph

Search for Another Location

Airport:

Trip Planner

Search our weather history database for the weather conditions in past years. The results will help you decide how hot, cold, wet, or windy it might be!

Date:

Astronomy

Feb. 14, 2014 Rise Set
Actual Time 7:36 AM CST 6:31 PM CST
Civil Twilight 7:10 AM CST 6:57 PM CST
Nautical Twilight 6:40 AM CST 7:26 PM CST
Astronomical Twilight 6:11 AM CST 7:56 PM CST
Moon 6:34 PM CST (2/14) 7:05 AM CST (2/14)
Length of Visible Light 11h 47m
Length of Day
10h 55m
Full, 100% of the Moon is Illuminated
Feb 14
Full
Feb 14
Full
Feb 22
Last Quarter
Mar 1
New
Mar 8
First Quarter

Hourly Weather History & Observations

Time (CST) Temp. Windchill Dew Point Humidity Pressure Visibility Wind Dir Wind Speed Gust Speed Precip Events Conditions
12:15 AM 49.1 °F - 22.1 °F 35% 29.82 in 10.0 mi WSW 13.8 mph - N/A   Clear
12:35 AM 45.7 °F 39.8 °F 22.1 °F 39% 29.82 in 10.0 mi West 12.7 mph - N/A   Clear
12:55 AM 45.1 °F 40.3 °F 22.3 °F 40% 29.83 in 10.0 mi West 9.2 mph - N/A   Clear
1:15 AM 44.6 °F 38.8 °F 23.0 °F 43% 29.83 in 10.0 mi West 11.5 mph - N/A   Clear
1:35 AM 43.0 °F 38.2 °F 23.0 °F 45% 29.83 in 10.0 mi WNW 8.1 mph - N/A   Clear
1:55 AM 41.0 °F 34.3 °F 22.6 °F 48% 29.84 in 10.0 mi West 11.5 mph - N/A   Clear
2:15 AM 43.3 °F 38.1 °F 24.3 °F 47% 29.85 in 10.0 mi West 9.2 mph - N/A   Clear
2:35 AM 43.0 °F 38.2 °F 24.6 °F 48% 29.84 in 10.0 mi West 8.1 mph - N/A   Clear
2:55 AM 43.0 °F 38.2 °F 24.4 °F 48% 29.83 in 10.0 mi West 8.1 mph - N/A   Clear
3:15 AM 46.4 °F 41.5 °F 23.7 °F 41% 29.83 in 10.0 mi West 10.4 mph - N/A   Clear
3:35 AM 42.8 °F 36.2 °F 23.7 °F 47% 29.83 in 10.0 mi West 12.7 mph - N/A   Clear
3:55 AM 41.5 °F 35.0 °F 23.5 °F 49% 29.83 in 10.0 mi West 11.5 mph - N/A   Clear
4:15 AM 41.9 °F 35.9 °F 23.0 °F 47% 29.83 in 10.0 mi West 10.4 mph - N/A   Clear
4:35 AM 39.7 °F 33.7 °F 22.8 °F 51% 29.84 in 10.0 mi West 9.2 mph - N/A   Clear
4:55 AM 38.5 °F 30.7 °F 22.3 °F 52% 29.86 in 10.0 mi West 12.7 mph - N/A   Clear
5:15 AM 36.9 °F 29.1 °F 22.5 °F 56% 29.86 in 10.0 mi West 11.5 mph - N/A   Clear
5:35 AM 37.2 °F 29.6 °F 22.1 °F 54% 29.87 in 10.0 mi West 11.5 mph - N/A   Clear
5:55 AM 35.8 °F 28.3 °F 21.7 °F 57% 29.88 in 10.0 mi West 10.4 mph - N/A   Clear
6:15 AM 34.9 °F 29.9 °F 21.0 °F 57% 29.89 in 10.0 mi WNW 5.8 mph - N/A   Clear
6:35 AM 33.1 °F 26.9 °F 20.3 °F 59% 29.91 in 10.0 mi NW 6.9 mph - N/A   Clear
6:55 AM 33.3 °F 25.7 °F 21.2 °F 61% 29.91 in 10.0 mi NW 9.2 mph - N/A   Clear
7:15 AM 33.8 °F 26.4 °F 20.7 °F 59% 29.93 in 10.0 mi NW 9.2 mph - N/A   Clear
7:35 AM 39.2 °F 30.5 °F 23.4 °F 53% 29.97 in 10.0 mi North 16.1 mph - N/A   Clear
7:55 AM 44.2 °F - 23.9 °F 45% 29.98 in 10.0 mi North - - N/A   Clear
8:15 AM 43.7 °F 36.6 °F 24.6 °F 47% 30.00 in 10.0 mi North 15.0 mph - N/A   Clear
8:35 AM 44.4 °F 36.9 °F 25.7 °F 48% 30.02 in 10.0 mi North 17.3 mph - N/A   Clear
8:55 AM 45.9 °F 38.3 °F 27.7 °F 49% 30.04 in 10.0 mi NNE 19.6 mph 28.8 mph N/A   Clear
9:15 AM 46.4 °F 38.5 °F 27.5 °F 48% 30.05 in 10.0 mi North 21.9 mph 29.9 mph N/A   Clear
9:35 AM 46.9 °F - 27.5 °F 47% 30.06 in 10.0 mi North 23.0 mph 35.7 mph N/A   Clear
9:55 AM 46.9 °F - 27.7 °F 47% 30.08 in 10.0 mi NNE 25.3 mph - N/A   Clear
10:15 AM 47.7 °F - 28.2 °F 47% 30.10 in 10.0 mi NNE 25.3 mph 31.1 mph N/A   Clear
10:35 AM 48.0 °F - 28.8 °F 47% 30.12 in 10.0 mi NNE 24.2 mph 29.9 mph N/A   Clear
10:55 AM 49.1 °F - 28.9 °F 46% 30.13 in 10.0 mi NNE 19.6 mph 26.5 mph N/A   Clear
11:15 AM 50.2 °F - 27.9 °F 42% 30.15 in 10.0 mi NNE 19.6 mph 27.6 mph N/A   Clear
11:35 AM 51.8 °F - 27.7 °F 39% 30.14 in 10.0 mi North 19.6 mph 27.6 mph N/A   Clear
11:55 AM 52.2 °F - 26.8 °F 37% 30.12 in 10.0 mi NNE 23.0 mph 28.8 mph N/A   Clear
12:15 PM 51.4 °F - 26.8 °F 38% 30.12 in 10.0 mi NNE 21.9 mph 32.2 mph N/A   Clear
12:35 PM 52.0 °F - 25.7 °F 36% 30.12 in 10.0 mi NNE 20.7 mph 29.9 mph N/A   Clear
12:55 PM 52.7 °F - 24.8 °F 34% 30.12 in 10.0 mi NNE 17.3 mph 23.0 mph N/A   Clear
1:15 PM 53.6 °F - 23.9 °F 32% 30.11 in 10.0 mi NNE 17.3 mph 24.2 mph N/A   Clear
1:35 PM 53.6 °F - 22.8 °F 30% 30.11 in 10.0 mi NNE 19.6 mph 23.0 mph N/A   Clear
1:55 PM 54.7 °F - 22.3 °F 28% 30.10 in 10.0 mi NE 17.3 mph 27.6 mph N/A   Clear
2:15 PM 53.6 °F - 21.9 °F 29% 30.10 in 10.0 mi ENE 15.0 mph - N/A   Clear
2:35 PM 53.4 °F - 21.0 °F 28% 30.09 in 10.0 mi NNE 9.2 mph 19.6 mph N/A   Clear
2:55 PM 55.4 °F - 19.9 °F 25% 30.08 in 10.0 mi NE 13.8 mph 17.3 mph N/A   Clear
3:15 PM 55.8 °F - 19.4 °F 24% 30.08 in 10.0 mi NNE 11.5 mph 19.6 mph N/A   Clear
3:35 PM 56.3 °F - 19.2 °F 24% 30.08 in 10.0 mi ENE 11.5 mph 16.1 mph N/A   Clear
3:55 PM 56.5 °F - 19.2 °F 23% 30.08 in 10.0 mi NE 10.4 mph - N/A   Clear
4:15 PM 56.1 °F - 18.9 °F 23% 30.09 in 10.0 mi ENE 10.4 mph 18.4 mph N/A   Clear
4:35 PM 55.2 °F - 18.7 °F 24% 30.08 in 10.0 mi ENE 8.1 mph - N/A   Clear
4:55 PM 55.6 °F - 19.0 °F 24% 30.07 in 10.0 mi East 9.2 mph - N/A   Clear
5:15 PM 53.6 °F - 18.7 °F 25% 30.08 in 10.0 mi East 8.1 mph - N/A   Clear
5:35 PM 52.7 °F - 18.5 °F 26% 30.08 in 10.0 mi East 9.2 mph - N/A   Clear
5:55 PM 50.9 °F - 18.5 °F 28% 30.08 in 10.0 mi East 5.8 mph - N/A   Clear
6:15 PM 49.1 °F - 18.1 °F 29% 30.09 in 10.0 mi East 3.5 mph - N/A   Clear
6:35 PM 47.7 °F - 18.3 °F 31% 30.10 in 10.0 mi Calm Calm - N/A   Clear
6:55 PM 47.3 °F - 18.3 °F 32% 30.10 in 10.0 mi ESE 3.5 mph - N/A   Clear
7:15 PM 45.3 °F - 18.0 °F 34% 30.12 in 10.0 mi Calm Calm - N/A   Clear
7:35 PM 41.9 °F - 16.2 °F 35% 30.11 in 10.0 mi North - - N/A   Clear
7:55 PM 41.0 °F - 18.1 °F 40% 30.10 in 10.0 mi North - - N/A   Clear
8:15 PM 39.6 °F - 17.8 °F 41% 30.10 in 10.0 mi North - - N/A   Clear
8:35 PM 40.8 °F - 18.3 °F 40% 30.10 in 10.0 mi North - - N/A   Clear
8:55 PM 37.8 °F - 19.0 °F 47% 30.10 in 10.0 mi North - - N/A   Clear
9:15 PM 39.2 °F - 19.6 °F 45% 30.09 in 10.0 mi North - - N/A   Clear
9:35 PM 41.5 °F - 19.2 °F 41% 30.09 in 10.0 mi North - - N/A   Clear
9:55 PM 39.4 °F 33.2 °F 18.3 °F 43% 30.09 in 10.0 mi South 9.2 mph - N/A   Clear
10:15 PM 37.0 °F 31.6 °F 18.7 °F 48% 30.09 in 10.0 mi South 6.9 mph - N/A   Clear
10:35 PM 37.4 °F 31.4 °F 17.8 °F 45% 30.09 in 10.0 mi South 8.1 mph - N/A   Clear
10:55 PM 35.6 °F 29.9 °F 17.4 °F 48% 30.09 in 10.0 mi SSW 6.9 mph - N/A   Clear
11:15 PM 35.4 °F 29.7 °F 17.4 °F 48% 30.09 in 10.0 mi South 6.9 mph - N/A   Clear
11:35 PM 35.8 °F 30.1 °F 18.5 °F 50% 30.09 in 10.0 mi South 6.9 mph - N/A   Clear
11:55 PM 35.1 °F 29.3 °F 18.5 °F 51% 30.09 in 10.0 mi South 6.9 mph - N/A   Clear